Printer-friendly version

IAU Minor Planet Center

Minor Planet Center

(68359) 2001 OZ13

Orbital Elements

The following orbital elements are taken from MPO124267
 (68359) 2001 OZ13
Epoch 2007 Oct. 27.0 TT = JDT 2454400.5                 MPC
M 303.87024              (2000.0)            P               Q
n   0.52726419     Peri.   28.97902     -0.61251218     -0.77220016
a   1.5174598      Node    99.30566     +0.68824203     -0.62609348
e   0.1743865      Incl.    9.85632     +0.38878238     -0.10823062
P   1.87           H   17.6           G   0.15           U   3
From 95 observations at 5 oppositions, 1995-2006, mean residual 0".59.
An explanation of the orbital elements is available.

These orbital elements are also available in forms suitable for loading into a number of popular planetarium-type software programs.


Ephemeris

The following ephemeris is at intervals of five days. A daily ephemeris covering the same time interval is also available.

Personalized ephemerides for this (and other) objects may be generated using the Minor Planet & Comet Ephemeris Service.

Date    TT    R. A. (2000) Decl.     Delta      r     Elong.  Phase     V
2009 10 26    08 58.38   +13 52.6    1.048    1.307    79.5    48.4    20.1
2009 10 31    09 14.83   +13 22.2    1.016    1.299    80.5    48.9    20.0
2009 11 05    09 31.33   +12 49.9    0.985    1.291    81.6    49.4    20.0
2009 11 10    09 47.87   +12 16.0    0.955    1.284    82.6    49.9    19.9
2009 11 15    10 04.42   +11 41.2    0.926    1.278    83.6    50.3    19.8
2009 11 20    10 20.95   +11 05.8    0.898    1.272    84.6    50.7    19.8
2009 11 25    10 37.46   +10 30.5    0.871    1.267    85.7    51.0    19.7
2009 11 30    10 53.92   +09 55.8    0.845    1.262    86.8    51.3    19.6
2009 12 05    11 10.32   +09 22.1    0.820    1.259    87.9    51.5    19.6
2009 12 10    11 26.62   +08 50.1    0.796    1.256    89.1    51.6    19.5
2009 12 15    11 42.78   +08 20.5    0.773    1.254    90.3    51.7    19.4
2009 12 20    11 58.76   +07 53.8    0.750    1.253    91.5    51.7    19.4
2009 12 25    12 14.51   +07 30.6    0.729    1.253    92.8    51.6    19.3
2009 12 30    12 29.99   +07 11.3    0.708    1.253    94.2    51.5    19.2
2010 01 04    12 45.15   +06 56.6    0.688    1.255    95.6    51.3    19.2
2010 01 09    12 59.94   +06 46.8    0.669    1.257    97.2    50.9    19.1
2010 01 14    13 14.26   +06 42.6    0.651    1.260    98.8    50.5    19.0
2010 01 19    13 28.05   +06 44.2    0.633    1.263   100.5    50.0    19.0
2010 01 24    13 41.22   +06 52.0    0.615    1.268   102.4    49.3    18.9
2010 01 29    13 53.70   +07 05.9    0.599    1.273   104.3    48.6    18.8
2010 02 03    14 05.42   +07 26.1    0.582    1.279   106.4    47.7    18.8
2010 02 08    14 16.26   +07 52.7    0.567    1.286   108.7    46.6    18.7
2010 02 13    14 26.12   +08 25.6    0.552    1.293   111.1    45.4    18.6
2010 02 18    14 34.88   +09 04.5    0.537    1.301   113.7    44.1    18.5
2010 02 23    14 42.43   +09 48.7    0.523    1.309   116.5    42.6    18.4
2010 02 28    14 48.69   +10 37.4    0.510    1.318   119.4    40.9    18.3
2010 03 05    14 53.55   +11 29.8    0.498    1.327   122.6    39.0    18.3
2010 03 10    14 56.90   +12 24.6    0.486    1.337   125.9    37.0    18.2
2010 03 15    14 58.64   +13 20.2    0.476    1.348   129.3    34.8    18.1
2010 03 20    14 58.71   +14 14.4    0.468    1.358   132.9    32.5    18.0
2010 03 25    14 57.13   +15 04.6    0.461    1.369   136.6    30.0    17.9
2010 03 30    14 53.97   +15 48.0    0.457    1.381   140.2    27.6    17.8
2010 04 04    14 49.37   +16 22.0    0.455    1.392   143.5    25.3    17.8
2010 04 09    14 43.53   +16 44.0    0.456    1.404   146.5    23.2    17.7
2010 04 14    14 36.74   +16 51.6    0.459    1.416   148.9    21.5    17.7
2010 04 19    14 29.40   +16 43.0    0.466    1.428   150.3    20.4    17.7
2010 04 24    14 21.92   +16 17.8    0.477    1.441   150.7    20.0    17.8
2010 04 29    14 14.71   +15 36.5    0.491    1.453   150.0    20.3    17.9
2010 05 04    14 08.09   +14 40.8    0.508    1.465   148.3    21.2    18.0
2010 05 09    14 02.31   +13 32.6    0.529    1.478   145.8    22.6    18.1
2010 05 14    13 57.58   +12 14.0    0.554    1.490   142.8    24.2    18.3
2010 05 19    13 54.00   +10 47.5    0.581    1.502   139.6    25.9    18.5
2010 05 24    13 51.62   +09 15.3    0.612    1.514   136.1    27.6    18.7
2010 05 29    13 50.41   +07 39.5    0.646    1.527   132.7    29.2    18.8
2010 06 03    13 50.32   +06 01.7    0.682    1.539   129.2    30.7    19.0
2010 06 08    13 51.26   +04 23.1    0.720    1.551   125.8    32.1    19.2
2010 06 13    13 53.16   +02 44.7    0.761    1.562   122.5    33.3    19.4
2010 06 18    13 55.96   +01 07.0    0.804    1.574   119.3    34.3    19.5
2010 06 23    13 59.56   -00 29.2    0.849    1.585   116.1    35.1    19.7
2010 06 28    14 03.89   -02 03.6    0.895    1.596   113.1    35.8    19.8
2010 07 03    14 08.86   -03 35.9    0.943    1.607   110.2    36.4    20.0
2010 07 08    14 14.43   -05 05.9    0.992    1.618   107.3    36.9    20.1
2010 07 13    14 20.55   -06 33.5    1.042    1.628   104.6    37.2    20.3
2010 07 18    14 27.17   -07 58.6    1.093    1.639   101.9    37.4    20.4
2010 07 23    14 34.26   -09 21.0    1.146    1.649    99.2    37.5    20.5
2010 07 28    14 41.77   -10 40.8    1.198    1.658    96.7    37.5    20.6
2010 08 02    14 49.67   -11 57.8    1.252    1.667    94.1    37.4    20.7
2010 08 07    14 57.93   -13 12.0    1.306    1.676    91.6    37.2    20.8
2010 08 12    15 06.55   -14 23.3    1.361    1.685    89.2    37.0    20.9

Valid HTML 4.01!